TimeCDT,TemperatureF,Dew PointF,Humidity,Sea Level PressureIn,VisibilityMPH,Wind Direction,Wind SpeedMPH,Gust SpeedMPH,PrecipitationIn,Events,Conditions,WindDirDegrees,DateUTC
12:54 AM,64.9,61.0,87,30.01,8.0,SW,3.5,-,N/A,,Clear,220,2013-07-25 05:54:00
1:54 AM,64.9,61.0,87,30.01,8.0,Calm,Calm,-,N/A,,Clear,0,2013-07-25 06:54:00
2:54 AM,64.0,61.0,90,30.01,9.0,Calm,Calm,-,N/A,,Clear,0,2013-07-25 07:54:00
3:54 AM,66.0,63.0,90,30.00,8.0,Calm,Calm,-,N/A,,Overcast,0,2013-07-25 08:54:00
4:54 AM,66.0,63.0,90,30.01,6.0,Calm,Calm,-,N/A,,Mostly Cloudy,0,2013-07-25 09:54:00
5:54 AM,66.0,63.0,90,30.00,7.0,Calm,Calm,-,N/A,,Scattered Clouds,0,2013-07-25 10:54:00
6:54 AM,66.9,64.0,90,30.00,6.0,ESE,3.5,-,N/A,,Scattered Clouds,120,2013-07-25 11:54:00
7:54 AM,70.0,64.9,84,29.99,8.0,SE,3.5,-,N/A,,Scattered Clouds,130,2013-07-25 12:54:00
8:54 AM,75.0,63.0,66,30.00,10.0,South,9.2,-,N/A,,Clear,170,2013-07-25 13:54:00
9:54 AM,78.1,64.0,62,29.98,10.0,South,11.5,-,N/A,,Clear,170,2013-07-25 14:54:00
10:54 AM,81.0,66.0,60,29.97,10.0,SSW,9.2,-,N/A,,Clear,200,2013-07-25 15:54:00
11:30 AM,80.6,64.4,58,30.01,10.0,WSW,9.2,-,N/A,Thunderstorm,Scattered Clouds,240,2013-07-25 16:30:00
11:43 AM,75.2,66.2,73,30.01,1.0,SW,9.2,-,0.03,Rain,Light Rain,220,2013-07-25 16:43:00
11:50 AM,73.4,66.2,78,30.01,0.5,SSE,4.6,19.6,0.09,Rain,Rain,160,2013-07-25 16:50:00
11:54 AM,73.0,66.9,81,29.98,1.5,Calm,Calm,-,0.09,Rain-Thunderstorm,Light Thunderstorms and Rain,0,2013-07-25 16:54:00
11:56 AM,73.4,66.2,78,30.01,3.0,Calm,Calm,-,0.00,Rain-Thunderstorm,Light Thunderstorms and Rain,0,2013-07-25 16:56:00
12:28 PM,77.0,69.8,78,30.00,10.0,South,6.9,-,0.00,,Mostly Cloudy,170,2013-07-25 17:28:00
12:54 PM,79.0,68.0,69,29.97,10.0,South,10.4,-,0.00,,Partly Cloudy,170,2013-07-25 17:54:00
1:54 PM,78.1,68.0,71,29.97,10.0,South,11.5,-,N/A,,Overcast,180,2013-07-25 18:54:00
2:54 PM,82.9,69.1,63,29.95,10.0,South,17.3,21.9,N/A,,Mostly Cloudy,190,2013-07-25 19:54:00
3:54 PM,84.0,68.0,58,29.94,10.0,South,15.0,19.6,N/A,,Mostly Cloudy,190,2013-07-25 20:54:00
4:54 PM,82.0,66.0,58,29.92,10.0,SSW,17.3,23.0,N/A,,Clear,210,2013-07-25 21:54:00
5:54 PM,80.1,63.0,56,29.94,10.0,SSW,12.7,19.6,N/A,,Clear,200,2013-07-25 22:54:00
6:54 PM,77.0,64.0,64,29.93,10.0,SSW,11.5,-,N/A,,Clear,210,2013-07-25 23:54:00
7:40 PM,71.6,68.0,88,29.99,1.8,SSW,8.1,-,0.04,Rain,Rain,200,2013-07-26 00:40:00
7:54 PM,72.0,68.0,87,29.98,5.0,Calm,Calm,-,0.05,Rain,Light Rain,0,2013-07-26 00:54:00
8:40 PM,71.6,68.0,88,30.02,4.0,East,5.8,-,0.01,Rain,Light Rain,80,2013-07-26 01:40:00
8:54 PM,70.0,66.9,90,29.98,8.0,East,9.2,-,0.01,Rain,Light Rain,90,2013-07-26 01:54:00
9:15 PM,69.8,66.2,88,30.01,9.0,ESE,9.2,-,0.00,,Overcast,120,2013-07-26 02:15:00
9:54 PM,70.0,66.9,90,29.97,10.0,South,5.8,-,0.00,,Overcast,180,2013-07-26 02:54:00
10:54 PM,68.0,66.0,93,29.97,5.0,SSW,4.6,-,N/A,,Mostly Cloudy,200,2013-07-26 03:54:00
11:54 PM,68.0,66.0,93,29.97,5.0,Calm,Calm,-,N/A,,Clear,0,2013-07-26 04:54:00